owner,sensor,date,latitude,longitude,air_pressure(mBar),qcFlag 
TABS,ioos:station:wmo:42045:1,2009-09-01T00:00:00Z,26.2168,-96.4998,1014.68,11111222 
TABS,ioos:station:wmo:42045:1,2009-09-01T00:30:00Z,26.2168,-96.4998,1015.07,11111222 
TABS,ioos:station:wmo:42045:1,2009-09-01T01:00:00Z,26.2168,-96.4998,1015.54,11111222 
TABS,ioos:station:wmo:42045:1,2009-09-01T01:30:00Z,26.2168,-96.4998,1015.93,11111222 
TABS,ioos:station:wmo:42045:1,2009-09-01T02:00:00Z,26.2168,-96.4998,1016.03,11111222 
TABS,ioos:station:wmo:42045:1,2009-09-01T02:30:00Z,26.2168,-96.4998,1016.24,11111222 
TABS,ioos:station:wmo:42045:1,2009-09-01T03:00:00Z,26.2168,-96.4998,1016.66,11111222 
TABS,ioos:station:wmo:42045:1,2009-09-01T03:30:00Z,26.2168,-96.4998,1016.91,11111222 
TABS,ioos:station:wmo:42045:1,2009-09-01T04:00:00Z,26.2168,-96.4998,1016.99,11111222 
TABS,ioos:station:wmo:42045:1,2009-09-01T04:30:00Z,26.2168,-96.4998,1017.11,11111222 
TABS,ioos:station:wmo:42045:1,2009-09-01T05:00:00Z,26.2168,-96.4998,1017.06,11111222 
TABS,ioos:station:wmo:42045:1,2009-09-01T05:30:00Z,26.2168,-96.4998,1017.11,11111222 
TABS,ioos:station:wmo:42045:1,2009-09-01T06:00:00Z,26.2168,-96.4998,1017.05,11111222 
TABS,ioos:station:wmo:42045:1,2009-09-01T06:30:00Z,26.2168,-96.4998,1016.75,11111222 
TABS,ioos:station:wmo:42045:1,2009-09-01T07:00:00Z,26.2168,-96.4998,1016.51,11111222 
TABS,ioos:station:wmo:42045:1,2009-09-01T07:30:00Z,26.2168,-96.4998,1016.48,11111222 
TABS,ioos:station:wmo:42045:1,2009-09-01T08:00:00Z,26.2168,-96.4998,1016.42,11111222 
TABS,ioos:station:wmo:42045:1,2009-09-01T08:30:00Z,26.2168,-96.4998,1016.26,11111222 
TABS,ioos:station:wmo:42045:1,2009-09-01T09:00:00Z,26.2168,-96.4998,1016.32,11111222 
TABS,ioos:station:wmo:42045:1,2009-09-01T09:30:00Z,26.2168,-96.4998,1016.27,11111222 
TABS,ioos:station:wmo:42045:1,2009-09-01T10:00:00Z,26.2168,-96.4998,1016.31,11111222 
TABS,ioos:station:wmo:42045:1,2009-09-01T10:30:00Z,26.2168,-96.4998,1016.4,11111222 
TABS,ioos:station:wmo:42045:1,2009-09-01T11:00:00Z,26.2168,-96.4998,1016.62,11111222 
TABS,ioos:station:wmo:42045:1,2009-09-01T11:30:00Z,26.2168,-96.4998,1016.9,11111222 
TABS,ioos:station:wmo:42045:1,2009-09-01T12:00:00Z,26.2168,-96.4998,1017.29,11111222 
TABS,ioos:station:wmo:42045:1,2009-09-01T12:30:00Z,26.2168,-96.4998,1017.47,11111222 
TABS,ioos:station:wmo:42045:1,2009-09-01T13:00:00Z,26.2168,-96.4998,1017.75,11111222 
TABS,ioos:station:wmo:42045:1,2009-09-01T13:30:00Z,26.2168,-96.4998,1017.91,11111222 
TABS,ioos:station:wmo:42045:1,2009-09-01T14:00:00Z,26.2168,-96.4998,1018.03,11111222 
TABS,ioos:station:wmo:42045:1,2009-09-01T14:30:00Z,26.2168,-96.4998,1018.55,11111222 
TABS,ioos:station:wmo:42045:1,2009-09-01T15:00:00Z,26.2168,-96.4998,1018.85,11111222 
TABS,ioos:station:wmo:42045:1,2009-09-01T15:30:00Z,26.2168,-96.4998,1019.02,11111222 
TABS,ioos:station:wmo:42045:1,2009-09-01T16:00:00Z,26.2168,-96.4998,1019.21,11111222 
TABS,ioos:station:wmo:42045:1,2009-09-01T16:30:00Z,26.2168,-96.4998,1019.37,11111222 
TABS,ioos:station:wmo:42045:1,2009-09-01T17:00:00Z,26.2168,-96.4998,1019.11,11111222 
TABS,ioos:station:wmo:42045:1,2009-09-01T17:30:00Z,26.2168,-96.4998,1018.68,11111222 
TABS,ioos:station:wmo:42045:1,2009-09-01T18:00:00Z,26.2168,-96.4998,1018.42,11111222 
TABS,ioos:station:wmo:42045:1,2009-09-01T18:30:00Z,26.2168,-96.4998,1018.52,11111222 
TABS,ioos:station:wmo:42045:1,2009-09-01T19:00:00Z,26.2168,-96.4998,1018.3,11111222 
TABS,ioos:station:wmo:42045:1,2009-09-01T19:30:00Z,26.2168,-96.4998,1017.49,11111222 
TABS,ioos:station:wmo:42045:1,2009-09-01T20:00:00Z,26.2168,-96.4998,1017.15,11111222 
TABS,ioos:station:wmo:42045:1,2009-09-01T20:30:00Z,26.2168,-96.4998,1016.91,11111222 
TABS,ioos:station:wmo:42045:1,2009-09-01T21:00:00Z,26.2168,-96.4998,1016.88,11111222 
TABS,ioos:station:wmo:42045:1,2009-09-01T21:30:00Z,26.2168,-96.4998,1016.73,11111222 
TABS,ioos:station:wmo:42045:1,2009-09-01T22:00:00Z,26.2168,-96.4998,1016.81,11111222 
TABS,ioos:station:wmo:42045:1,2009-09-01T22:30:00Z,26.2168,-96.4998,1016.82,11111222 
TABS,ioos:station:wmo:42045:1,2009-09-01T23:00:00Z,26.2168,-96.4998,1016.94,11111222 
TABS,ioos:station:wmo:42045:1,2009-09-01T23:30:00Z,26.2168,-96.4998,1016.98,11111222 
TABS,ioos:station:wmo:42045:1,2009-09-02T00:00:00Z,26.2168,-96.4998,1017.01,11111222 
TABS,ioos:station:wmo:42045:1,2009-09-02T00:30:00Z,26.2168,-96.4998,1017.14,11111222 
TABS,ioos:station:wmo:42045:1,2009-09-02T01:00:00Z,26.2168,-96.4998,1016.97,11111222 
TABS,ioos:station:wmo:42045:1,2009-09-02T01:30:00Z,26.2168,-96.4998,1017.19,11111222 
TABS,ioos:station:wmo:42045:1,2009-09-02T02:00:00Z,26.2168,-96.4998,1017.34,11111222 
TABS,ioos:station:wmo:42045:1,2009-09-02T02:30:00Z,26.2168,-96.4998,1017.59,11111222 
TABS,ioos:station:wmo:42045:1,2009-09-02T03:00:00Z,26.2168,-96.4998,1017.74,11111222 
TABS,ioos:station:wmo:42045:1,2009-09-02T03:30:00Z,26.2168,-96.4998,1017.72,11111222 
TABS,ioos:station:wmo:42045:1,2009-09-02T04:00:00Z,26.2168,-96.4998,1017.59,11111222 
TABS,ioos:station:wmo:42045:1,2009-09-02T04:30:00Z,26.2168,-96.4998,1017.47,11111222 
TABS,ioos:station:wmo:42045:1,2009-09-02T05:00:00Z,26.2168,-96.4998,1017.43,11111222 
TABS,ioos:station:wmo:42045:1,2009-09-02T05:30:00Z,26.2168,-96.4998,1017.53,11111222 
TABS,ioos:station:wmo:42045:1,2009-09-02T06:00:00Z,26.2168,-96.4998,1017.4,11111222 
TABS,ioos:station:wmo:42045:1,2009-09-02T06:30:00Z,26.2168,-96.4998,1017.35,11111222 
TABS,ioos:station:wmo:42045:1,2009-09-02T07:00:00Z,26.2168,-96.4998,1017.03,11111222 
TABS,ioos:station:wmo:42045:1,2009-09-02T07:30:00Z,26.2168,-96.4998,1017.01,11111222 
TABS,ioos:station:wmo:42045:1,2009-09-02T08:00:00Z,26.2168,-96.4998,1016.89,11111222 
TABS,ioos:station:wmo:42045:1,2009-09-02T08:30:00Z,26.2168,-96.4998,1016.92,11111222 
TABS,ioos:station:wmo:42045:1,2009-09-02T09:00:00Z,26.2168,-96.4998,1016.81,11111222 
TABS,ioos:station:wmo:42045:1,2009-09-02T09:30:00Z,26.2168,-96.4998,1016.73,11111222 
TABS,ioos:station:wmo:42045:1,2009-09-02T10:00:00Z,26.2168,-96.4998,1016.64,11111222 
TABS,ioos:station:wmo:42045:1,2009-09-02T10:30:00Z,26.2168,-96.4998,1016.46,11111222 
TABS,ioos:station:wmo:42045:1,2009-09-02T11:00:00Z,26.2168,-96.4998,1017.21,11111222 
TABS,ioos:station:wmo:42045:1,2009-09-02T11:30:00Z,26.2168,-96.4998,1017.58,11111222 
TABS,ioos:station:wmo:42045:1,2009-09-02T12:00:00Z,26.2168,-96.4998,1017.94,11111222 
TABS,ioos:station:wmo:42045:1,2009-09-02T12:30:00Z,26.2168,-96.4998,1017.89,11111222 
TABS,ioos:station:wmo:42045:1,2009-09-02T13:00:00Z,26.2168,-96.4998,1017.97,11111222 
TABS,ioos:station:wmo:42045:1,2009-09-02T13:30:00Z,26.2168,-96.4998,1018.2,11111222 
TABS,ioos:station:wmo:42045:1,2009-09-02T14:00:00Z,26.2168,-96.4998,1018.05,11111222 
TABS,ioos:station:wmo:42045:1,2009-09-02T14:30:00Z,26.2168,-96.4998,1017.97,11111222 
TABS,ioos:station:wmo:42045:1,2009-09-02T15:00:00Z,26.2168,-96.4998,1017.96,11111222 
TABS,ioos:station:wmo:42045:1,2009-09-02T15:30:00Z,26.2168,-96.4998,1018.05,11111222 
TABS,ioos:station:wmo:42045:1,2009-09-02T16:00:00Z,26.2168,-96.4998,1018.21,11111222 
TABS,ioos:station:wmo:42045:1,2009-09-02T16:30:00Z,26.2168,-96.4998,1018.28,11111222 
TABS,ioos:station:wmo:42045:1,2009-09-02T17:00:00Z,26.2168,-96.4998,1018.32,11111222 
TABS,ioos:station:wmo:42045:1,2009-09-02T17:30:00Z,26.2168,-96.4998,1018.05,11111222 
TABS,ioos:station:wmo:42045:1,2009-09-02T18:00:00Z,26.2168,-96.4998,1017.84,11111222 
TABS,ioos:station:wmo:42045:1,2009-09-02T18:30:00Z,26.2168,-96.4998,1017.74,11111222 
TABS,ioos:station:wmo:42045:1,2009-09-02T19:00:00Z,26.2168,-96.4998,1017.46,11111222 
TABS,ioos:station:wmo:42045:1,2009-09-02T19:30:00Z,26.2168,-96.4998,1017.23,11111222 
TABS,ioos:station:wmo:42045:1,2009-09-02T20:00:00Z,26.2168,-96.4998,1016.79,11111222 
TABS,ioos:station:wmo:42045:1,2009-09-02T20:30:00Z,26.2168,-96.4998,1016.51,11111222 
TABS,ioos:station:wmo:42045:1,2009-09-02T21:00:00Z,26.2168,-96.4998,1016.3,11111222 
TABS,ioos:station:wmo:42045:1,2009-09-02T21:30:00Z,26.2168,-96.4998,1016.18,11111222 
TABS,ioos:station:wmo:42045:1,2009-09-02T22:00:00Z,26.2168,-96.4998,1015.87,11111222 
TABS,ioos:station:wmo:42045:1,2009-09-02T22:30:00Z,26.2168,-96.4998,1015.59,11111222 
TABS,ioos:station:wmo:42045:1,2009-09-02T23:00:00Z,26.2168,-96.4998,1015.61,11111222 
TABS,ioos:station:wmo:42045:1,2009-09-02T23:30:00Z,26.2168,-96.4998,1015.78,11111222 
TABS,ioos:station:wmo:42045:1,2009-09-03T00:00:00Z,26.2168,-96.4998,1015.93,11111222 
TABS,ioos:station:wmo:42045:1,2009-09-03T00:30:00Z,26.2168,-96.4998,1016.01,11111222 
TABS,ioos:station:wmo:42045:1,2009-09-03T01:00:00Z,26.2168,-96.4998,1015.96,11111222 
TABS,ioos:station:wmo:42045:1,2009-09-03T01:30:00Z,26.2168,-96.4998,1016.13,11111222 
TABS,ioos:station:wmo:42045:1,2009-09-03T02:00:00Z,26.2168,-96.4998,1016.21,11111222 
TABS,ioos:station:wmo:42045:1,2009-09-03T02:30:00Z,26.2168,-96.4998,1016.42,11111222 
TABS,ioos:station:wmo:42045:1,2009-09-03T03:00:00Z,26.2168,-96.4998,1016.45,11111222 
TABS,ioos:station:wmo:42045:1,2009-09-03T03:30:00Z,26.2168,-96.4998,1016.43,11111222 
TABS,ioos:station:wmo:42045:1,2009-09-03T04:00:00Z,26.2168,-96.4998,1016.4,11111222 
TABS,ioos:station:wmo:42045:1,2009-09-03T04:30:00Z,26.2168,-96.4998,1016.47,11111222 
TABS,ioos:station:wmo:42045:1,2009-09-03T05:00:00Z,26.2168,-96.4998,1016.45,11111222 
TABS,ioos:station:wmo:42045:1,2009-09-03T05:30:00Z,26.2168,-96.4998,1016.35,11111222 
TABS,ioos:station:wmo:42045:1,2009-09-03T06:00:00Z,26.2168,-96.4998,1015.97,11111222 
TABS,ioos:station:wmo:42045:1,2009-09-03T06:30:00Z,26.2168,-96.4998,1015.91,11111222 
TABS,ioos:station:wmo:42045:1,2009-09-03T07:00:00Z,26.2168,-96.4998,1015.73,11111222 
TABS,ioos:station:wmo:42045:1,2009-09-03T07:30:00Z,26.2168,-96.4998,1015.72,11111222 
TABS,ioos:station:wmo:42045:1,2009-09-03T08:00:00Z,26.2168,-96.4998,1015.65,11111222 
TABS,ioos:station:wmo:42045:1,2009-09-03T08:30:00Z,26.2168,-96.4998,1015.56,11111222 
TABS,ioos:station:wmo:42045:1,2009-09-03T09:00:00Z,26.2168,-96.4998,1015.43,11111222 
TABS,ioos:station:wmo:42045:1,2009-09-03T09:30:00Z,26.2168,-96.4998,1015.31,11111222 
TABS,ioos:station:wmo:42045:1,2009-09-03T10:00:00Z,26.2168,-96.4998,1015.34,11111222 
TABS,ioos:station:wmo:42045:1,2009-09-03T10:30:00Z,26.2168,-96.4998,1015.29,11111222 
TABS,ioos:station:wmo:42045:1,2009-09-03T11:00:00Z,26.2168,-96.4998,1015.27,11111222 
TABS,ioos:station:wmo:42045:1,2009-09-03T11:30:00Z,26.2168,-96.4998,1015.47,11111222 
TABS,ioos:station:wmo:42045:1,2009-09-03T12:00:00Z,26.2168,-96.4998,1015.68,11111222 
TABS,ioos:station:wmo:42045:1,2009-09-03T12:30:00Z,26.2168,-96.4998,1015.76,11111222 
TABS,ioos:station:wmo:42045:1,2009-09-03T13:00:00Z,26.2168,-96.4998,1016.0,11111222 
TABS,ioos:station:wmo:42045:1,2009-09-03T13:30:00Z,26.2168,-96.4998,1016.09,11111222 
TABS,ioos:station:wmo:42045:1,2009-09-03T14:00:00Z,26.2168,-96.4998,1016.22,11111222 
TABS,ioos:station:wmo:42045:1,2009-09-03T14:30:00Z,26.2168,-96.4998,1016.19,11111222 
TABS,ioos:station:wmo:42045:1,2009-09-03T15:00:00Z,26.2168,-96.4998,1016.36,11111222 
TABS,ioos:station:wmo:42045:1,2009-09-03T15:30:00Z,26.2168,-96.4998,1016.41,11111222 
TABS,ioos:station:wmo:42045:1,2009-09-03T16:00:00Z,26.2168,-96.4998,1016.42,11111222 
TABS,ioos:station:wmo:42045:1,2009-09-03T16:30:00Z,26.2168,-96.4998,1016.36,11111222 
TABS,ioos:station:wmo:42045:1,2009-09-03T17:00:00Z,26.2168,-96.4998,1016.0,11111222 
TABS,ioos:station:wmo:42045:1,2009-09-03T17:30:00Z,26.2168,-96.4998,1015.67,11111222 
TABS,ioos:station:wmo:42045:1,2009-09-03T18:00:00Z,26.2168,-96.4998,1015.54,11111222 
TABS,ioos:station:wmo:42045:1,2009-09-03T18:30:00Z,26.2168,-96.4998,1015.28,11111222 
TABS,ioos:station:wmo:42045:1,2009-09-03T19:00:00Z,26.2168,-96.4998,1015.09,11111222 
TABS,ioos:station:wmo:42045:1,2009-09-03T19:30:00Z,26.2168,-96.4998,1014.66,11111222 
TABS,ioos:station:wmo:42045:1,2009-09-03T20:00:00Z,26.2168,-96.4998,1014.42,11111222 
TABS,ioos:station:wmo:42045:1,2009-09-03T20:30:00Z,26.2168,-96.4998,1013.88,11111222 
TABS,ioos:station:wmo:42045:1,2009-09-03T21:00:00Z,26.2168,-96.4998,1013.48,11111222 
TABS,ioos:station:wmo:42045:1,2009-09-03T21:30:00Z,26.2168,-96.4998,1013.14,11111222 
TABS,ioos:station:wmo:42045:1,2009-09-03T22:00:00Z,26.2168,-96.4998,1012.94,11111222 
TABS,ioos:station:wmo:42045:1,2009-09-03T22:30:00Z,26.2168,-96.4998,1012.84,11111222 
TABS,ioos:station:wmo:42045:1,2009-09-03T23:00:00Z,26.2168,-96.4998,1012.92,11111222 
TABS,ioos:station:wmo:42045:1,2009-09-03T23:30:00Z,26.2168,-96.4998,1013.03,11111222 
TABS,ioos:station:wmo:42045:1,2009-09-04T00:00:00Z,26.2168,-96.4998,1013.18,11111222 
TABS,ioos:station:wmo:42045:1,2009-09-04T00:30:00Z,26.2168,-96.4998,1013.55,11111222 
TABS,ioos:station:wmo:42045:1,2009-09-04T01:00:00Z,26.2168,-96.4998,1013.67,11111222 
TABS,ioos:station:wmo:42045:1,2009-09-04T01:30:00Z,26.2168,-96.4998,1013.97,11111222 
TABS,ioos:station:wmo:42045:1,2009-09-04T02:00:00Z,26.2168,-96.4998,1013.88,11111222 
TABS,ioos:station:wmo:42045:1,2009-09-04T02:30:00Z,26.2168,-96.4998,1014.05,11111222 
TABS,ioos:station:wmo:42045:1,2009-09-04T03:00:00Z,26.2168,-96.4998,1014.01,11111222 
TABS,ioos:station:wmo:42045:1,2009-09-04T03:30:00Z,26.2168,-96.4998,1013.99,11111222 
TABS,ioos:station:wmo:42045:1,2009-09-04T04:00:00Z,26.2168,-96.4998,1014.07,11111222 
TABS,ioos:station:wmo:42045:1,2009-09-04T04:30:00Z,26.2168,-96.4998,1014.23,11111222 
TABS,ioos:station:wmo:42045:1,2009-09-04T05:00:00Z,26.2168,-96.4998,1014.28,11111222 
TABS,ioos:station:wmo:42045:1,2009-09-04T05:30:00Z,26.2168,-96.4998,1014.19,11111222 
TABS,ioos:station:wmo:42045:1,2009-09-04T06:00:00Z,26.2168,-96.4998,1014.09,11111222 
TABS,ioos:station:wmo:42045:1,2009-09-04T06:30:00Z,26.2168,-96.4998,1013.78,11111222 
TABS,ioos:station:wmo:42045:1,2009-09-04T07:00:00Z,26.2168,-96.4998,1013.36,11111222 
TABS,ioos:station:wmo:42045:1,2009-09-04T07:30:00Z,26.2168,-96.4998,1013.02,11111222 
TABS,ioos:station:wmo:42045:1,2009-09-04T08:00:00Z,26.2168,-96.4998,1012.46,11111222 
TABS,ioos:station:wmo:42045:1,2009-09-04T08:30:00Z,26.2168,-96.4998,1012.57,11111222 
TABS,ioos:station:wmo:42045:1,2009-09-04T09:00:00Z,26.2168,-96.4998,1012.52,11111222 
TABS,ioos:station:wmo:42045:1,2009-09-04T09:30:00Z,26.2168,-96.4998,1012.45,11111222 
TABS,ioos:station:wmo:42045:1,2009-09-04T10:00:00Z,26.2168,-96.4998,1012.12,11111222 
TABS,ioos:station:wmo:42045:1,2009-09-04T10:30:00Z,26.2168,-96.4998,1012.18,11111222 
TABS,ioos:station:wmo:42045:1,2009-09-04T11:00:00Z,26.2168,-96.4998,1012.5,11111222 
TABS,ioos:station:wmo:42045:1,2009-09-04T11:30:00Z,26.2168,-96.4998,1012.68,11111222 
TABS,ioos:station:wmo:42045:1,2009-09-04T12:00:00Z,26.2168,-96.4998,1013.14,11111222 
TABS,ioos:station:wmo:42045:1,2009-09-04T12:30:00Z,26.2168,-96.4998,1013.4,11111222 
TABS,ioos:station:wmo:42045:1,2009-09-04T13:00:00Z,26.2168,-96.4998,1013.64,11111222 
TABS,ioos:station:wmo:42045:1,2009-09-04T13:30:00Z,26.2168,-96.4998,1013.65,11111222 
TABS,ioos:station:wmo:42045:1,2009-09-04T14:00:00Z,26.2168,-96.4998,1013.62,11111222 
TABS,ioos:station:wmo:42045:1,2009-09-04T14:30:00Z,26.2168,-96.4998,1013.68,11111222 
TABS,ioos:station:wmo:42045:1,2009-09-04T15:00:00Z,26.2168,-96.4998,1013.89,11111222 
TABS,ioos:station:wmo:42045:1,2009-09-04T15:30:00Z,26.2168,-96.4998,1014.09,11111222 
TABS,ioos:station:wmo:42045:1,2009-09-04T16:00:00Z,26.2168,-96.4998,1014.16,11111222 
TABS,ioos:station:wmo:42045:1,2009-09-04T16:30:00Z,26.2168,-96.4998,1014.36,11111222 
TABS,ioos:station:wmo:42045:1,2009-09-04T17:00:00Z,26.2168,-96.4998,1014.46,11111222 
TABS,ioos:station:wmo:42045:1,2009-09-04T17:30:00Z,26.2168,-96.4998,1014.34,11111222 
TABS,ioos:station:wmo:42045:1,2009-09-04T18:00:00Z,26.2168,-96.4998,1014.22,11111222 
TABS,ioos:station:wmo:42045:1,2009-09-04T18:30:00Z,26.2168,-96.4998,1014.07,11111222 
TABS,ioos:station:wmo:42045:1,2009-09-04T19:00:00Z,26.2168,-96.4998,1013.91,11111222 
TABS,ioos:station:wmo:42045:1,2009-09-04T19:30:00Z,26.2168,-96.4998,1013.53,11111222 
TABS,ioos:station:wmo:42045:1,2009-09-04T20:00:00Z,26.2168,-96.4998,1013.34,11111222 
TABS,ioos:station:wmo:42045:1,2009-09-04T20:30:00Z,26.2168,-96.4998,1012.85,11111222 
TABS,ioos:station:wmo:42045:1,2009-09-04T21:00:00Z,26.2168,-96.4998,1012.34,11111222 
TABS,ioos:station:wmo:42045:1,2009-09-04T21:30:00Z,26.2168,-96.4998,1012.02,11111222 
TABS,ioos:station:wmo:42045:1,2009-09-04T22:00:00Z,26.2168,-96.4998,1011.97,11111222 
TABS,ioos:station:wmo:42045:1,2009-09-04T22:30:00Z,26.2168,-96.4998,1012.02,11111222 
TABS,ioos:station:wmo:42045:1,2009-09-04T23:00:00Z,26.2168,-96.4998,1012.03,11111222 
TABS,ioos:station:wmo:42045:1,2009-09-04T23:30:00Z,26.2168,-96.4998,1011.93,11111222 
TABS,ioos:station:wmo:42045:1,2009-09-05T00:00:00Z,26.2168,-96.4998,1011.99,11111222 
TABS,ioos:station:wmo:42045:1,2009-09-05T00:30:00Z,26.2168,-96.4998,1012.16,11111222 
TABS,ioos:station:wmo:42045:1,2009-09-05T01:00:00Z,26.2168,-96.4998,1012.3,11111222 
TABS,ioos:station:wmo:42045:1,2009-09-05T01:30:00Z,26.2168,-96.4998,1012.61,11111222 
TABS,ioos:station:wmo:42045:1,2009-09-05T02:00:00Z,26.2168,-96.4998,1012.91,11111222 
TABS,ioos:station:wmo:42045:1,2009-09-05T02:30:00Z,26.2168,-96.4998,1013.13,11111222 
TABS,ioos:station:wmo:42045:1,2009-09-05T03:00:00Z,26.2168,-96.4998,1013.25,11111222 
TABS,ioos:station:wmo:42045:1,2009-09-05T03:30:00Z,26.2168,-96.4998,1013.37,11111222 
TABS,ioos:station:wmo:42045:1,2009-09-05T04:00:00Z,26.2168,-96.4998,1013.68,11111222 
TABS,ioos:station:wmo:42045:1,2009-09-05T04:30:00Z,26.2168,-96.4998,1013.91,11111222 
TABS,ioos:station:wmo:42045:1,2009-09-05T05:00:00Z,26.2168,-96.4998,1013.99,11111222 
TABS,ioos:station:wmo:42045:1,2009-09-05T05:30:00Z,26.2168,-96.4998,1013.91,11111222 
TABS,ioos:station:wmo:42045:1,2009-09-05T06:00:00Z,26.2168,-96.4998,1013.89,11111222 
TABS,ioos:station:wmo:42045:1,2009-09-05T06:30:00Z,26.2168,-96.4998,1013.65,11111222 
TABS,ioos:station:wmo:42045:1,2009-09-05T07:00:00Z,26.2168,-96.4998,1013.44,11111222 
TABS,ioos:station:wmo:42045:1,2009-09-05T07:30:00Z,26.2168,-96.4998,1013.19,11111222 
TABS,ioos:station:wmo:42045:1,2009-09-05T08:00:00Z,26.2168,-96.4998,1012.99,11111222 
TABS,ioos:station:wmo:42045:1,2009-09-05T08:30:00Z,26.2168,-96.4998,1012.9,11111222 
TABS,ioos:station:wmo:42045:1,2009-09-05T09:00:00Z,26.2168,-96.4998,1012.91,11111222 
TABS,ioos:station:wmo:42045:1,2009-09-05T09:30:00Z,26.2168,-96.4998,1012.55,11111222 
TABS,ioos:station:wmo:42045:1,2009-09-05T10:00:00Z,26.2168,-96.4998,1012.49,11111222 
TABS,ioos:station:wmo:42045:1,2009-09-05T10:30:00Z,26.2168,-96.4998,1012.57,11111222 
TABS,ioos:station:wmo:42045:1,2009-09-05T11:00:00Z,26.2168,-96.4998,1013.08,11111222 
TABS,ioos:station:wmo:42045:1,2009-09-05T11:30:00Z,26.2168,-96.4998,1013.27,11111222 
TABS,ioos:station:wmo:42045:1,2009-09-05T12:00:00Z,26.2168,-96.4998,1013.53,11111222 
TABS,ioos:station:wmo:42045:1,2009-09-05T12:30:00Z,26.2168,-96.4998,1013.6,11111222 
TABS,ioos:station:wmo:42045:1,2009-09-05T13:00:00Z,26.2168,-96.4998,1013.8,11111222 
TABS,ioos:station:wmo:42045:1,2009-09-05T13:30:00Z,26.2168,-96.4998,1013.97,11111222 
TABS,ioos:station:wmo:42045:1,2009-09-05T14:00:00Z,26.2168,-96.4998,1014.51,11111222 
TABS,ioos:station:wmo:42045:1,2009-09-05T14:30:00Z,26.2168,-96.4998,1014.96,11111222 
TABS,ioos:station:wmo:42045:1,2009-09-05T15:00:00Z,26.2168,-96.4998,1015.21,11111222 
TABS,ioos:station:wmo:42045:1,2009-09-05T15:30:00Z,26.2168,-96.4998,1015.46,11111222 
TABS,ioos:station:wmo:42045:1,2009-09-05T16:00:00Z,26.2168,-96.4998,1015.77,11111222 
TABS,ioos:station:wmo:42045:1,2009-09-05T16:30:00Z,26.2168,-96.4998,1015.79,11111222 
TABS,ioos:station:wmo:42045:1,2009-09-05T17:00:00Z,26.2168,-96.4998,1015.65,11111222 
TABS,ioos:station:wmo:42045:1,2009-09-05T17:30:00Z,26.2168,-96.4998,1015.38,11111222 
TABS,ioos:station:wmo:42045:1,2009-09-05T18:00:00Z,26.2168,-96.4998,1015.3,11111222 
TABS,ioos:station:wmo:42045:1,2009-09-05T18:30:00Z,26.2168,-96.4998,1015.04,11111222 
TABS,ioos:station:wmo:42045:1,2009-09-05T19:00:00Z,26.2168,-96.4998,1014.62,11111222 
TABS,ioos:station:wmo:42045:1,2009-09-05T19:30:00Z,26.2168,-96.4998,1014.21,11111222 
TABS,ioos:station:wmo:42045:1,2009-09-05T20:00:00Z,26.2168,-96.4998,1014.04,11111222 
TABS,ioos:station:wmo:42045:1,2009-09-05T20:30:00Z,26.2168,-96.4998,1013.56,11111222 
TABS,ioos:station:wmo:42045:1,2009-09-05T21:00:00Z,26.2168,-96.4998,1013.35,11111222 
TABS,ioos:station:wmo:42045:1,2009-09-05T21:30:00Z,26.2168,-96.4998,1013.25,11111222 
TABS,ioos:station:wmo:42045:1,2009-09-05T22:00:00Z,26.2168,-96.4998,1013.16,11111222 
TABS,ioos:station:wmo:42045:1,2009-09-05T22:30:00Z,26.2168,-96.4998,1013.14,11111222 
TABS,ioos:station:wmo:42045:1,2009-09-05T23:00:00Z,26.2168,-96.4998,1013.08,11111222 
TABS,ioos:station:wmo:42045:1,2009-09-05T23:30:00Z,26.2168,-96.4998,1012.99,11111222 
TABS,ioos:station:wmo:42045:1,2009-09-06T00:00:00Z,26.2168,-96.4998,1013.09,11111222 
TABS,ioos:station:wmo:42045:1,2009-09-06T00:30:00Z,26.2168,-96.4998,1013.23,11111222 
TABS,ioos:station:wmo:42045:1,2009-09-06T01:00:00Z,26.2168,-96.4998,1013.45,11111222 
TABS,ioos:station:wmo:42045:1,2009-09-06T01:30:00Z,26.2168,-96.4998,1013.77,11111222 
TABS,ioos:station:wmo:42045:1,2009-09-06T02:00:00Z,26.2168,-96.4998,1014.05,11111222 
TABS,ioos:station:wmo:42045:1,2009-09-06T02:30:00Z,26.2168,-96.4998,1014.46,11111222 
TABS,ioos:station:wmo:42045:1,2009-09-06T03:00:00Z,26.2168,-96.4998,1014.71,11111222 
TABS,ioos:station:wmo:42045:1,2009-09-06T03:30:00Z,26.2168,-96.4998,1014.82,11111222 
TABS,ioos:station:wmo:42045:1,2009-09-06T04:00:00Z,26.2168,-96.4998,1014.9,11111222 
TABS,ioos:station:wmo:42045:1,2009-09-06T04:30:00Z,26.2168,-96.4998,1015.08,11111222 
TABS,ioos:station:wmo:42045:1,2009-09-06T05:00:00Z,26.2168,-96.4998,1015.03,11111222 
TABS,ioos:station:wmo:42045:1,2009-09-06T05:30:00Z,26.2168,-96.4998,1014.97,11111222 
TABS,ioos:station:wmo:42045:1,2009-09-06T06:00:00Z,26.2168,-96.4998,1014.8,11111222 
TABS,ioos:station:wmo:42045:1,2009-09-06T06:30:00Z,26.2168,-96.4998,1014.49,11111222 
TABS,ioos:station:wmo:42045:1,2009-09-06T07:00:00Z,26.2168,-96.4998,1014.46,11111222 
TABS,ioos:station:wmo:42045:1,2009-09-06T07:30:00Z,26.2168,-96.4998,1014.45,11111222 
TABS,ioos:station:wmo:42045:1,2009-09-06T08:00:00Z,26.2168,-96.4998,1014.45,11111222 
TABS,ioos:station:wmo:42045:1,2009-09-06T08:30:00Z,26.2168,-96.4998,1014.25,11111222 
TABS,ioos:station:wmo:42045:1,2009-09-06T09:00:00Z,26.2168,-96.4998,1013.98,11111222 
TABS,ioos:station:wmo:42045:1,2009-09-06T09:30:00Z,26.2168,-96.4998,1014.11,11111222 
TABS,ioos:station:wmo:42045:1,2009-09-06T10:00:00Z,26.2168,-96.4998,1013.99,11111222 
TABS,ioos:station:wmo:42045:1,2009-09-06T10:30:00Z,26.2168,-96.4998,1013.95,11111222 
TABS,ioos:station:wmo:42045:1,2009-09-06T11:00:00Z,26.2168,-96.4998,1014.14,11111222 
TABS,ioos:station:wmo:42045:1,2009-09-06T11:30:00Z,26.2168,-96.4998,1014.39,11111222 
TABS,ioos:station:wmo:42045:1,2009-09-06T12:00:00Z,26.2168,-96.4998,1014.43,11111222 
TABS,ioos:station:wmo:42045:1,2009-09-06T12:30:00Z,26.2168,-96.4998,1014.68,11111222 
TABS,ioos:station:wmo:42045:1,2009-09-06T13:00:00Z,26.2168,-96.4998,1015.08,11111222 
TABS,ioos:station:wmo:42045:1,2009-09-06T13:30:00Z,26.2168,-96.4998,1015.37,11111222 
TABS,ioos:station:wmo:42045:1,2009-09-06T14:00:00Z,26.2168,-96.4998,1015.43,11111222 
TABS,ioos:station:wmo:42045:1,2009-09-06T14:30:00Z,26.2168,-96.4998,1015.64,11111222 
TABS,ioos:station:wmo:42045:1,2009-09-06T15:00:00Z,26.2168,-96.4998,1016.03,11111222 
TABS,ioos:station:wmo:42045:1,2009-09-06T15:30:00Z,26.2168,-96.4998,1016.46,11111222 
TABS,ioos:station:wmo:42045:1,2009-09-06T16:00:00Z,26.2168,-96.4998,1016.68,11111222 
TABS,ioos:station:wmo:42045:1,2009-09-06T16:30:00Z,26.2168,-96.4998,1017.02,11111222 
TABS,ioos:station:wmo:42045:1,2009-09-06T17:00:00Z,26.2168,-96.4998,1016.59,11111222 
TABS,ioos:station:wmo:42045:1,2009-09-06T17:30:00Z,26.2168,-96.4998,1016.58,11111222 
TABS,ioos:station:wmo:42045:1,2009-09-06T18:00:00Z,26.2168,-96.4998,1016.28,11111222 
TABS,ioos:station:wmo:42045:1,2009-09-06T18:30:00Z,26.2168,-96.4998,1016.08,11111222 